STARLINK-30135, 56842

Orbit data source: Space-Track

STARLINK-30135, 56842 is a payload satellite owned by SpaceX/Seattle (US) in LEO that was launched on Sun, 04 Jun 2023 UTC via an FALCON 9 launch vehicle from the Air Force Eastern Test Range (AFETR). Payload-class satellites include a variety of spacecraft equipped with specific instruments for various scientific and technological missions. These include communications satellites like Starlink; space stations such as the ISS; scientific satellites like the Hubble; Earth observation satellites from companies like Planet Labs, Umbra, and HawkEye 360; GPS; miniature CubeSats for education and research; and military/defense satellites.

Loading next visibility...
Identifier
56842, 2023-079V
Orbit
LEO
Country
Flag of USUS
Related business
Manufacturer
SpaceX/Seattle
Mission
Operational Commercial Communications
Bus & Motor
STARLINK V2M, Unknown motor
Mass
730 kg wet, ~700 kg dry
Launch date (UTC)
2023-06-04 (3 years ago)
Launch vehicle
FALCON 9
Launch site
Air Force Eastern Test Range (AFETR)
Object type
Payload
Rocket body
Debris
Shape & HBR
Box + 2 Pan, 17.7 m
Radar Cross Section
33.884 m², Large (>1 m²)

Expand to show TLE details & history
Last TLE update: 2 days ago

TLE from 2 days ago
0 STARLINK-30135
1 56842U 23079V   26171.26450522  .00000226  00000-0  17746-4 0  9998
2 56842  43.0018 247.8489 0001201 272.3860  87.6854 15.27572340168578
Epoch: 2026-06-20T06:20Z
TLE epoch observation values (Epoch: 2026-06-20T06:20:53.251Z)
Latitude
-0.00001°
Longitude
-115.85461°
Altitude
482.814 km
Speed
7.626 km/s
True Right ascension
16h 31m 23s
True Declination
0° 00' 00"
Sunlit
Object was in full shadow at epoch
Visualization orbit readout
Latitude
Unknown
Longitude
Unknown
Altitude
Unknown
Speed
Unknown
Apparent Right ascension
Unknown
Apparent Declination
Unknown
Sunlit
N/A
Visualization observer readout
Local Sidereal Time
21:33:16
Azimuth
Unknown
Elevation
Unknown
Doppler factor
Unknown
Orbital elements
Apogee altitude
485.841 km
Perigee altitude
484.193 km
Semi-major axis
6,863.154 km
Eccentricity
0.00012
Inclination
43.0018°
RAAN
247.8489°
Arg. of periapsis
272.386°
True anomaly
87.69915°
Mean anomaly
87.6854°
Eccentric anomaly
87.69228°
Mean motion
3.81731 °/min
Orbital period
94.31 mins
BSTAR
0.000017746
Loading maneuver chart data...
Computing Atmospheric mass density...
Loading historical data...
Loading historical data...
Loading historical data...
Loading historical data...
Loading historical data...
Loading historical data...
Loading historical data...

Documentation

Showing up to 5 results
|